Tracking 25744 objects as of 25-Jun-2022
HD Live streaming from Space Station
objects crossing your sky now

SL-6 R/B(2)

Track SL-6 R/B(2) now!


NORAD ID: 10949
Int'l Code: 1978-055E
Perigee: 763.8 km
Apogee: 40,242.6 km
Inclination: 63.0 °
Period: 730.7 minutes
Semi major axis: 26874 km
RCS: 7.3545 m2 (large)
Launch date: June 2, 1978
Source: Commonwealth of Independent States (former USSR) (CIS)
Launch site: PLESETSK MISSILE AND SPACE COMPLEX (PKMTR)

Note: This is a ROCKET BODY
aabbcc
Your satellite tracking list
Your tracking list is empty




NASA's NSSDC Master Catalog

Two Line Element Set (TLE):
1 10949U 78055E   22174.74366181  .00000642  00000-0  00000-0 0  9992
2 10949  63.0024  74.8242 7345113 277.7676  11.9753  1.97060380211502
Source of the keplerian elements: AFSPC